[[{"header":{"parameterUnit":"m.s-1","parameterCategory":1,"la1":30.2991,"la2":30.254,"lo1":-89.0895,"lo2":-89.0444,"dy":0.0017,"dx":0.0017,"nx":28,"ny":28,"refTime":"2023-10-14T03:00:00:Z","depth":0,"parameterNumber":2,"parameterNumberName":"U-component_of_WINDS"},"data":[0,0,0,0,0,0,0,0,0,0,0,0,0,0,0,0,0,0,0,0,0,0,0,0,0,0,0,0,0,0,0,0,0,0,0,0,0,0,0,0,0,0,0,0,0,0,0,0,0,0,0,0,0,0,0,0,0,0,3.0279,3.0278,0,3.0265,3.0264,3.0264,3.022,3.0219,3.0218,3.0217,3.0203,3.0204,3.0204,0,0,0,0,0,0,0,0,0,0,0,0,0,3.0268,3.0269,3.0279,3.0278,3.0278,3.0265,3.0264,3.0264,3.022,3.0219,3.0218,3.0217,3.0203,3.0203,3.0204,0,0,0,0,0,0,0,0,0,0,0,0,0,3.0265,3.0269,3.0279,3.0255,3.0252,3.0265,3.0264,3.0264,3.022,3.0219,3.0218,3.0216,3.0203,3.0203,3.0204,3.0239,0,0,3.0207,3.0207,0,0,0,0,0,0,0,0,3.0266,3.0266,3.0258,3.0256,3.0254,3.0243,3.0256,3.0256,3.0221,3.0233,3.0217,3.0215,3.0217,3.0217,3.0217,3.0238,3.0237,3.0207,3.0207,3.0208,3.0208,0,0,0,0,0,0,0,3.0266,3.0266,3.0273,3.0258,3.0255,3.0245,3.0243,3.0255,3.0233,3.0231,3.0228,3.0227,3.0216,3.0217,3.0217,3.0237,3.0207,3.0207,3.0208,3.0208,3.0286,3.0287,0,0,0,0,0,0,3.0269,3.0267,3.0273,3.0273,3.0256,3.0246,3.0244,3.0248,3.0233,3.0229,3.0228,3.0225,3.0216,3.0216,3.0216,3.0255,3.0208,3.0208,3.0209,3.0284,3.0286,3.0288,0,0,0,0,0,0,3.0269,3.027,3.0274,3.0269,3.0268,3.0248,3.0252,3.0248,3.0249,3.0231,3.0227,3.0233,3.0215,3.0215,3.0233,3.0254,3.0209,3.0209,3.0282,3.0285,3.0287,3.0334,0,0,0,0,0,0,3.0269,3.0271,3.0283,3.0269,3.0269,3.0291,3.0254,3.0249,3.025,3.0246,3.0234,3.0231,3.0214,3.0232,3.0234,3.0254,3.021,3.028,3.0283,3.0286,3.033,3.0337,3.0343,0,0,0,0,0,3.0269,3.0297,3.0284,3.0285,3.0284,3.0292,3.0292,3.0272,3.0252,3.0265,3.0253,3.0231,3.0252,3.0235,3.0236,3.0257,3.0279,3.0282,3.0286,3.0327,3.0336,3.0343,0,0,0,0,0,0,3.0313,3.0294,3.028,3.0304,3.03,3.0285,3.03,3.0282,3.0283,3.0279,3.0254,3.0252,3.0274,3.0267,3.0248,3.029,3.0262,3.0266,3.0293,3.0301,3.0307,3.0308,3.0211,0,0,0,0,0,3.0326,3.0334,3.0317,3.034,3.0339,3.032,3.0323,3.0308,3.0303,3.0301,3.0291,3.0287,3.0293,3.0297,3.0301,3.033,3.0327,3.0345,3.0352,3.0357,3.036,3.0375,3.0383,3.0299,3.0299,3.0299,0,0,3.0352,3.0342,3.0349,3.0349,3.0344,3.0354,3.0319,3.033,3.0337,3.0303,3.0319,3.0312,3.0306,3.033,3.034,3.0325,3.0383,3.0362,3.0366,3.0366,3.038,3.0388,3.0395,3.0302,3.0301,3.0301,0,0,3.0403,3.0397,3.0416,3.0412,3.0405,3.0393,3.0398,3.0385,3.0379,3.0396,3.037,3.0379,3.0389,3.0385,3.0385,3.0438,3.0418,3.044,3.0474,3.0489,3.0496,3.0502,3.052,3.0527,3.0444,3.0444,3.0444,0,3.0436,3.0448,3.0427,3.044,3.0441,3.0412,3.043,3.0428,3.0423,3.0424,3.0409,3.0421,3.0415,3.0438,3.0451,3.0452,3.0456,3.044,3.0497,3.0502,3.0507,3.0524,3.0531,3.0447,3.0446,3.0446,3.0446,0,3.0489,3.0499,3.0514,3.0511,3.0513,3.0529,3.0511,3.0517,3.0502,3.0491,3.0509,3.0501,3.0503,3.0508,3.0494,3.0529,3.052,3.0501,3.0472,3.0518,3.0534,3.054,3.0451,3.045,3.0449,3.0448,0,0,3.0565,3.0551,3.0557,3.0555,3.0547,3.0554,3.0569,3.0572,3.0577,3.0575,3.0587,3.0597,3.058,3.058,3.0565,3.0578,3.062,3.0557,3.0557,3.0568,3.0658,3.0672,3.068,3.0608,3.0609,3.061,3.0659,0,3.0613,3.0638,3.062,3.0647,3.0656,3.0629,3.0642,3.0639,3.063,3.0637,3.0627,3.0634,3.0611,3.0611,3.0623,3.0612,3.0638,3.0609,3.0618,3.0618,3.0618,3.0688,3.0702,3.0748,3.0665,3.0666,3.0666,0,3.0672,3.0673,3.0702,3.0692,3.0695,3.0707,3.0708,3.0715,3.0711,3.0704,3.0705,3.0687,3.0701,3.0675,3.0694,3.0675,3.0678,3.0674,3.0676,3.0674,3.0644,3.0687,3.0762,3.0769,3.0676,3.0675,3.0674,0,3.0724,3.0733,3.0751,3.0751,3.074,3.0749,3.0746,3.074,3.0743,3.0745,3.0746,3.075,3.0751,3.0754,3.0738,3.072,3.076,3.0732,3.0754,3.0754,3.0762,3.0761,3.0837,3.0766,3.0766,3.0766,3.0766,0,3.0778,3.0796,3.0774,3.0785,3.0805,3.0786,3.0806,3.0799,3.0795,3.0805,3.0783,3.0792,3.0771,3.0778,3.0766,3.0784,3.0785,3.078,3.0776,3.0781,3.0781,3.0781,3.0777,3.0768,3.0768,3.0767,3.0767,0,3.0838,3.0824,3.0842,3.0832,3.083,3.0845,3.0836,3.0846,3.0836,3.0849,3.085,3.0835,3.0843,3.0828,3.0834,3.0826,3.0851,3.0843,3.0852,3.0849,3.0872,3.0869,3.0949,3.0958,3.0883,3.0884,3.0884,0,3.0873,3.0887,3.0878,3.0883,3.088,3.0889,3.0892,3.0874,3.0878,3.0875,3.0885,3.0892,3.0895,3.0909,3.0899,3.0903,3.0894,3.0922,3.0895,3.0899,3.0893,3.0892,3.0893,3.0927,3.0928,3.0929,3.0929,0,3.0936,3.0929,3.0934,3.0938,3.0942,3.0944,3.0944,3.0949,3.093,3.0936,3.0944,3.0947,3.0953,3.096,3.0962,3.0958,3.0941,3.0938,3.0943,3.0948,3.0952,3.0949,3.0866,3.0936,3.0935,3.0935,3.0935,3.0934,3.0984,3.0995,3.0991,3.0997,3.0996,3.0997,3.1006,3.0998,3.1004,3.1008,3.0997,3.1008,3.1004,3.1006,3.1004,3.1012,3.1,3.1008,3.1009,3.1011,3.1014,3.0952,3.1013,3.1013,3.1013,3.1012,3.1012,0,3.1045,3.1041,3.1048,3.1049,3.1055,3.1039,3.1039,3.1044,3.1054,3.1052,3.1057,3.1066,3.1073,3.1064,3.1068,3.1077,3.1069,3.1078,3.1077,3.1076,3.1026,3.102,3.1085,3.1085,3.1085,3.1085,3.1085,3.1085,3.1077,3.1095,3.1087,3.1104,3.11,3.111,3.1112,3.1113,3.1111,3.1123,3.1128,3.1123,3.1118,3.1123,3.1128,3.1126,3.1128,3.114,3.1135,3.1087,3.108,3.1073,3.1068,3.1141,3.1141,3.1184,3.1185,3.1185]},{"header":{"parameterUnit":"m.s-1","parameterCategory":1,"la1":30.2991,"la2":30.254,"lo1":-89.0895,"lo2":-89.0444,"dy":0.0017,"dx":0.0017,"nx":28,"ny":28,"refTime":"2023-10-14T03:00:00:Z","depth":0,"parameterNumber":3,"parameterNumberName":"V-component_of_WINDS"},"data":[0,0,0,0,0,0,0,0,0,0,0,0,0,0,0,0,0,0,0,0,0,0,0,0,0,0,0,0,0,0,0,0,0,0,0,0,0,0,0,0,0,0,0,0,0,0,0,0,0,0,0,0,0,0,0,0,0,0,-8.8195,-8.8197,0,-8.8413,-8.8415,-8.8417,-8.8343,-8.8338,-8.8333,-8.8329,-8.8545,-8.8554,-8.8565,0,0,0,0,0,0,0,0,0,0,0,0,0,-8.7708,-8.7717,-8.8195,-8.8197,-8.82,-8.8412,-8.8415,-8.8418,-8.8344,-8.8338,-8.8332,-8.8327,-8.8541,-8.8553,-8.8565,0,0,0,0,0,0,0,0,0,0,0,0,0,-8.7922,-8.772,-8.8194,-8.8189,-8.819,-8.8412,-8.8415,-8.8419,-8.8345,-8.8338,-8.833,-8.8324,-8.8537,-8.8552,-8.8567,-8.8805,0,0,-8.8614,-8.8621,0,0,0,0,0,0,0,0,-8.791,-8.794,-8.8187,-8.819,-8.8192,-8.8343,-8.8323,-8.8548,-8.8347,-8.8286,-8.8329,-8.832,-8.8483,-8.8502,-8.8559,-8.8815,-8.8824,-8.8615,-8.8625,-8.8631,-8.8635,0,0,0,0,0,0,0,-8.7895,-8.793,-8.8281,-8.819,-8.8194,-8.8173,-8.8196,-8.8365,-8.8422,-8.8291,-8.8286,-8.8313,-8.8483,-8.8544,-8.8563,-8.8827,-8.8615,-8.8628,-8.8638,-8.8644,-8.9289,-8.9297,0,0,0,0,0,0,-8.788,-8.7918,-8.8274,-8.8287,-8.8031,-8.8188,-8.8213,-8.8302,-8.842,-8.8431,-8.8319,-8.8309,-8.8521,-8.8545,-8.857,-8.8857,-8.8631,-8.8645,-8.8654,-8.9281,-8.9291,-8.93,0,0,0,0,0,0,-8.787,-8.7912,-8.8265,-8.8102,-8.8145,-8.8204,-8.8304,-8.831,-8.8371,-8.8441,-8.845,-8.8372,-8.8517,-8.8549,-8.8748,-8.8863,-8.8652,-8.8666,-8.9272,-8.9284,-8.9295,-8.9431,0,0,0,0,0,0,-8.7856,-8.7909,-8.8001,-8.8104,-8.8154,-8.8441,-8.8311,-8.8319,-8.8398,-8.8387,-8.8493,-8.8503,-8.8514,-8.8725,-8.8763,-8.888,-8.8678,-8.9262,-8.9277,-8.9292,-8.9417,-8.9447,-8.9472,0,0,0,0,0,-8.7839,-8.8029,-8.8007,-8.805,-8.8271,-8.8448,-8.8476,-8.8486,-8.8408,-8.8501,-8.8546,-8.85,-8.8845,-8.8746,-8.8788,-8.8912,-8.9255,-8.9273,-8.929,-8.9404,-8.9441,-8.9471,0,0,0,0,0,0,-8.7936,-8.8043,-8.8019,-8.8248,-8.834,-8.8435,-8.8552,-8.8524,-8.8638,-8.8622,-8.8627,-8.8652,-8.8856,-8.8903,-8.8792,-8.9148,-8.9038,-8.9065,-8.911,-8.9145,-8.9172,-8.9156,-8.8691,0,0,0,0,0,-8.7985,-8.8122,-8.8206,-8.8401,-8.8448,-8.8493,-8.857,-8.857,-8.8664,-8.8701,-8.8761,-8.8852,-8.8981,-8.9065,-8.9187,-8.9423,-8.9445,-8.9529,-8.9556,-8.9578,-8.9602,-8.973,-8.9769,-8.9359,-8.9358,-8.9358,0,0,-8.8086,-8.8161,-8.8246,-8.8422,-8.8493,-8.8633,-8.8525,-8.8678,-8.8781,-8.8724,-8.8916,-8.8963,-8.9064,-8.9283,-8.9382,-8.9329,-8.972,-8.9601,-8.9619,-8.963,-8.9753,-8.9792,-8.9826,-8.9371,-8.9369,-8.9367,0,0,-8.8341,-8.8412,-8.8583,-8.8657,-8.8766,-8.8795,-8.8836,-8.8936,-8.8966,-8.9159,-8.9119,-8.9241,-8.9462,-8.9537,-8.9604,-8.9889,-8.9851,-8.9928,-9.0072,-9.0197,-9.023,-9.0258,-9.036,-9.0397,-8.9951,-8.9952,-8.9952,0,-8.8453,-8.8664,-8.8673,-8.883,-8.8908,-8.8865,-8.9037,-8.9107,-8.925,-8.9305,-8.9243,-8.9521,-8.9587,-8.9822,-8.9892,-8.9948,-8.9994,-8.9916,-9.0225,-9.0254,-9.028,-9.0378,-9.0416,-8.996,-8.9959,-8.9958,-8.9958,0,-8.8795,-8.8943,-8.9067,-8.9209,-8.9301,-8.9464,-8.9497,-8.9588,-8.958,-8.9615,-8.9812,-8.9889,-9.0026,-9.0082,-9.0074,-9.0317,-9.0281,-9.0222,-9.0111,-9.0328,-9.042,-9.0457,-8.9973,-8.997,-8.9967,-8.9965,0,0,-8.9119,-8.9265,-8.9311,-8.9375,-8.9493,-8.9606,-8.9767,-8.9904,-8.9983,-9.0082,-9.0217,-9.0406,-9.0353,-9.0429,-9.0429,-9.0539,-9.0761,-9.0467,-9.0469,-9.0519,-9.1033,-9.1077,-9.112,-9.0736,-9.0743,-9.0749,-9.1024,0,-8.9385,-8.967,-8.9683,-8.9942,-9.0078,-9.004,-9.0179,-9.0266,-9.0302,-9.0421,-9.0459,-9.0594,-9.0514,-9.056,-9.0667,-9.0711,-9.0864,-9.0691,-9.086,-9.0866,-9.0837,-9.1168,-9.1215,-9.1471,-9.106,-9.1066,-9.1071,0,-8.9733,-8.9848,-9.0121,-9.0221,-9.0278,-9.0404,-9.0531,-9.0646,-9.0742,-9.0761,-9.0847,-9.0832,-9.0994,-9.0878,-9.1102,-9.0984,-9.1053,-9.1086,-9.1096,-9.1112,-9.0982,-9.1193,-9.1553,-9.1592,-9.1127,-9.1122,-9.1118,0,-8.9943,-9.0164,-9.0357,-9.0413,-9.0534,-9.0623,-9.0677,-9.0767,-9.0849,-9.0959,-9.1012,-9.1139,-9.1208,-9.1305,-9.1324,-9.1238,-9.1548,-9.1433,-9.1567,-9.1567,-9.1635,-9.163,-9.2011,-9.1679,-9.1678,-9.1677,-9.1677,0,-9.0239,-9.0408,-9.0453,-9.0571,-9.0759,-9.0771,-9.0956,-9.1003,-9.1084,-9.1209,-9.1182,-9.13,-9.1317,-9.1439,-9.1454,-9.1637,-9.1668,-9.1687,-9.1689,-9.169,-9.1688,-9.1736,-9.1719,-9.1688,-9.1685,-9.1683,-9.1682,0,-9.0505,-9.0542,-9.0749,-9.0847,-9.0876,-9.101,-9.1093,-9.1206,-9.1239,-9.1398,-9.1436,-9.1488,-9.163,-9.1658,-9.1825,-9.1835,-9.2053,-9.2037,-9.2022,-9.202,-9.2153,-9.2141,-9.2578,-9.2636,-9.2266,-9.2269,-9.2272,0,-9.0692,-9.0821,-9.0934,-9.1018,-9.1077,-9.1212,-9.1296,-9.1312,-9.14,-9.1521,-9.1619,-9.1759,-9.1871,-9.2099,-9.215,-9.2278,-9.2265,-9.241,-9.2284,-9.2281,-9.2268,-9.226,-9.2273,-9.2434,-9.2438,-9.2441,-9.2444,0,-9.102,-9.1032,-9.1156,-9.1287,-9.1389,-9.1492,-9.1589,-9.1659,-9.1688,-9.1788,-9.1935,-9.2022,-9.2194,-9.2333,-9.246,-9.2513,-9.2484,-9.2483,-9.2521,-9.2523,-9.251,-9.252,-9.2088,-9.2473,-9.247,-9.2468,-9.2466,-9.2465,-9.1253,-9.1367,-9.1464,-9.1603,-9.1679,-9.1771,-9.1882,-9.1931,-9.2054,-9.2197,-9.2198,-9.2358,-9.2451,-9.262,-9.2681,-9.2805,-9.2759,-9.2814,-9.2828,-9.2841,-9.2854,-9.249,-9.2828,-9.2827,-9.2826,-9.2826,-9.2825,0,-9.158,-9.1642,-9.1769,-9.1909,-9.2017,-9.1982,-9.2089,-9.2182,-9.2324,-9.2414,-9.2526,-9.2694,-9.2829,-9.2891,-9.3023,-9.311,-9.31,-9.3144,-9.3138,-9.3151,-9.2887,-9.2842,-9.3151,-9.3151,-9.315,-9.315,-9.315,-9.315,-9.1764,-9.1955,-9.1979,-9.2206,-9.2265,-9.2424,-9.2488,-9.2573,-9.2645,-9.2835,-9.2948,-9.2988,-9.3067,-9.3205,-9.3326,-9.3341,-9.3391,-9.3442,-9.345,-9.3203,-9.3169,-9.3138,-9.3095,-9.3453,-9.3453,-9.3704,-9.3706,-9.3708]}]]